Date String (YYYY-MM-DD hh:mm:ss) UTC,Instrument flags,Ambient pressure (hPa),Sample flow (lpm),Bypass flow (lpm),Sample temperature (°C),Ambient temperature (°C),ASC tube jacket temperature (°C),LED temperature (°C),Box temperature (°C),Sample RH (%),Span deviation,Mass concentration (μg/m³),Mass concentration (μg/m³),Mass concentration (μg/m³)
DateTimeUTC,F1_M11,P_M11,Q1_M11,Q2_M11,T1_M11,T2_M11,T3_M11,T4_M11,T5_M11,U1_M11,ZSPAN_M11,X0_M11,X2_M11,X1_M11
2022-07-03 03:00:00,,0826.5,5.00,0.00,29.5,27.5,00.0,38.1,31.4,23.9,0000.0,0006.97,0003.24,0002.38
2022-07-03 03:01:00,,0826.5,5.00,0.00,29.4,27.5,00.0,38.1,31.3,22.7,0000.0,0007.10,0003.23,0002.38
2022-07-03 03:02:00,,0826.5,5.00,0.00,29.4,27.5,00.0,38.1,31.2,23.4,0000.0,0006.88,0003.18,0002.39
2022-07-03 03:03:00,,0826.5,5.00,0.00,29.4,27.7,00.0,38.1,31.3,23.5,0000.0,0006.91,0003.21,0002.41
2022-07-03 03:04:00,,0826.5,5.01,0.00,29.4,27.8,00.0,38.1,31.3,23.9,0000.0,0007.12,0003.21,0002.42
2022-07-03 03:05:00,,0826.5,5.00,0.00,29.4,28.0,00.0,38.1,31.3,24.1,0000.0,0007.09,0003.18,0002.43
2022-07-03 03:06:00,,0826.5,5.00,0.00,29.4,28.1,00.0,38.1,31.4,23.9,0000.0,0007.16,0003.20,0002.46
2022-07-03 03:07:00,,0826.5,5.00,0.00,29.5,28.2,00.0,38.2,31.4,23.6,0000.0,0007.29,0003.22,0002.46
2022-07-03 03:08:00,,0826.5,5.00,0.00,29.5,28.3,00.0,38.2,31.5,22.7,0000.0,0006.89,0003.22,0002.47
2022-07-03 03:09:00,,0826.6,5.00,0.00,29.5,28.4,00.0,38.2,31.5,22.7,0000.0,0006.56,0003.22,0002.46
2022-07-03 03:10:00,,0826.6,5.01,0.00,29.6,28.5,00.0,38.2,31.5,23.2,0000.0,0006.24,0003.22,0002.46
2022-07-03 03:11:00,,0826.5,5.01,0.00,29.6,28.6,00.0,38.2,31.6,23.4,0000.0,0005.98,0003.23,0002.46
2022-07-03 03:12:00,,0826.5,4.99,0.00,29.6,28.1,00.0,38.2,31.5,23.1,0000.0,0005.76,0003.22,0002.45
2022-07-03 03:13:00,,0826.5,5.00,0.00,29.5,27.2,00.0,38.2,31.3,23.2,0000.0,0005.92,0003.26,0002.45
2022-07-03 03:14:00,,0826.5,5.01,0.00,29.5,26.8,00.0,38.1,31.2,23.5,0000.0,0005.76,0003.22,0002.45
2022-07-03 03:15:00,,0826.5,5.01,0.00,29.4,26.9,00.0,38.1,31.1,23.4,0000.0,0006.13,0003.21,0002.44
2022-07-03 03:16:00,,0826.6,5.00,0.00,29.3,27.0,00.0,38.1,31.1,23.5,0000.0,0006.60,0003.20,0002.43
2022-07-03 03:17:00,,0826.6,5.00,0.00,29.3,27.2,00.0,38.1,31.1,23.5,0000.0,0006.74,0003.17,0002.39
2022-07-03 03:18:00,,0826.6,5.00,0.00,29.3,27.4,00.0,38.1,31.1,23.2,0000.0,0006.55,0003.13,0002.36
2022-07-03 03:19:00,,0826.6,5.00,0.00,29.3,27.6,00.0,38.1,31.2,23.3,0000.0,0006.50,0003.11,0002.35
2022-07-03 03:20:00,,0826.6,5.00,0.00,29.3,27.7,00.0,38.1,31.2,23.2,0000.0,0006.75,0003.12,0002.35
2022-07-03 03:21:00,,0826.6,5.01,0.00,29.3,27.9,00.0,38.1,31.2,23.0,0000.0,0006.72,0003.11,0002.36
2022-07-03 03:22:00,,0826.6,4.99,0.00,29.3,28.0,00.0,38.1,31.3,22.8,0000.0,0006.60,0003.05,0002.34
2022-07-03 03:23:00,,0826.6,4.98,0.00,29.4,28.2,00.0,38.1,31.3,22.7,0000.0,0006.47,0003.00,0002.31
2022-07-03 03:24:00,,0826.7,5.00,0.00,29.4,28.3,00.0,38.1,31.4,22.8,0000.0,0006.32,0002.93,0002.29
2022-07-03 03:25:00,,0826.7,5.01,0.00,29.4,28.4,00.0,38.1,31.4,22.9,0000.0,0006.39,0002.92,0002.27
2022-07-03 03:26:00,,0826.6,5.00,0.00,29.5,28.5,00.0,38.2,31.5,22.9,0000.0,0005.89,0002.92,0002.25
2022-07-03 03:27:00,,0826.7,5.00,0.00,29.5,28.5,00.0,38.2,31.5,22.8,0000.0,0005.41,0002.93,0002.25
2022-07-03 03:28:00,,0826.7,5.00,0.00,29.5,28.6,00.0,38.2,31.6,22.6,0000.0,0005.35,0002.93,0002.25
2022-07-03 03:29:00,,0826.7,4.99,0.00,29.6,28.5,00.0,38.2,31.5,22.7,0000.0,0005.43,0002.94,0002.26
2022-07-03 03:30:00,,0826.7,5.00,0.00,29.6,27.8,00.0,38.2,31.5,22.2,0000.0,0005.36,0002.88,0002.24
2022-07-03 03:31:00,,0826.7,5.00,0.00,29.5,27.4,00.0,38.1,31.4,22.4,0000.0,0005.04,0002.83,0002.23
2022-07-03 03:32:00,,0826.7,5.02,0.00,29.5,27.4,00.0,38.2,31.3,22.4,0000.0,0005.05,0002.84,0002.21
2022-07-03 03:33:00,,0826.7,4.99,0.00,29.4,27.5,00.0,38.2,31.3,22.6,0000.0,0005.18,0002.90,0002.21
2022-07-03 03:34:00,,0826.7,4.99,0.00,29.4,27.6,00.0,38.2,31.3,22.3,0000.0,0005.27,0002.92,0002.21
2022-07-03 03:35:00,,0826.7,5.00,0.00,29.4,27.8,00.0,38.2,31.3,22.5,0000.0,0005.43,0002.95,0002.21
2022-07-03 03:36:00,,0826.7,4.99,0.00,29.4,27.9,00.0,38.2,31.3,22.5,0000.0,0005.67,0002.97,0002.23
2022-07-03 03:37:00,,0826.8,5.00,0.00,29.5,28.1,00.0,38.2,31.4,22.6,0000.0,0006.51,0003.01,0002.23
2022-07-03 03:38:00,,0826.8,5.01,0.00,29.5,28.2,00.0,38.2,31.4,22.4,0000.0,0006.17,0002.97,0002.23
2022-07-03 03:39:00,,0826.8,5.00,0.00,29.5,28.3,00.0,38.2,31.4,22.4,0000.0,0005.98,0002.99,0002.24
2022-07-03 03:40:00,,0826.8,5.00,0.00,29.5,28.4,00.0,38.2,31.5,22.0,0000.0,0005.93,0002.95,0002.23
2022-07-03 03:41:00,,0826.8,5.01,0.00,29.6,28.5,00.0,38.2,31.5,22.1,0000.0,0005.96,0003.00,0002.24
2022-07-03 03:42:00,,0826.8,5.00,0.00,29.6,28.6,00.0,38.3,31.6,21.8,0000.0,0005.95,0003.01,0002.24
2022-07-03 03:43:00,,0827.0,5.00,0.00,29.6,28.6,00.0,38.3,31.6,21.7,0000.0,0005.96,0003.00,0002.25
2022-07-03 03:44:00,,0827.1,5.00,0.00,29.6,28.1,00.0,38.2,31.5,21.7,0000.0,0005.93,0003.00,0002.26
2022-07-03 03:45:00,,0826.8,5.01,0.00,29.6,27.2,00.0,38.2,31.4,21.6,0000.0,0005.86,0002.98,0002.26
2022-07-03 03:46:00,,0826.9,4.99,0.00,29.5,26.9,00.0,38.2,31.2,21.5,0000.0,0005.75,0002.97,0002.26
2022-07-03 03:47:00,,0826.9,4.99,0.00,29.4,26.9,00.0,38.2,31.1,21.8,0000.0,0005.54,0002.99,0002.25
2022-07-03 03:48:00,,0826.9,5.00,0.00,29.3,27.0,00.0,38.1,31.1,22.0,0000.0,0005.68,0002.93,0002.23
2022-07-03 03:49:00,,0827.1,5.00,0.00,29.3,27.2,00.0,38.1,31.1,22.0,0000.0,0005.83,0002.97,0002.23
2022-07-03 03:50:00,,0827.0,4.99,0.00,29.3,27.4,00.0,38.1,31.1,22.4,0000.0,0005.80,0002.95,0002.23
2022-07-03 03:51:00,,0827.2,5.00,0.00,29.3,27.5,00.0,38.1,31.2,22.8,0000.0,0005.92,0003.04,0002.25
2022-07-03 03:52:00,,0827.0,5.00,0.00,29.3,27.7,00.0,38.1,31.2,22.9,0000.0,0005.91,0003.06,0002.26
2022-07-03 03:53:00,,0827.0,4.99,0.00,29.3,27.9,00.0,38.1,31.3,22.7,0000.0,0005.88,0003.03,0002.25
2022-07-03 03:54:00,,0827.0,5.01,0.00,29.3,28.0,00.0,38.1,31.3,22.6,0000.0,0005.69,0002.98,0002.23
2022-07-03 03:55:00,,0827.1,4.99,0.00,29.4,28.1,00.0,38.1,31.3,22.3,0000.0,0005.68,0002.98,0002.23
2022-07-03 03:56:00,,0827.4,5.00,0.00,29.4,28.2,00.0,38.1,31.4,22.4,0000.0,0005.95,0002.99,0002.23
2022-07-03 03:57:00,,0827.5,5.01,0.00,29.4,28.4,00.0,38.1,31.4,22.5,0000.0,0007.10,0003.02,0002.23
2022-07-03 03:58:00,,0827.3,5.00,0.00,29.5,28.4,00.0,38.2,31.5,22.6,0000.0,0007.02,0003.00,0002.25
2022-07-03 03:59:00,,0827.3,5.00,0.00,29.5,28.5,00.0,38.2,31.5,22.7,0000.0,0006.07,0003.00,0002.24
